Regional Weather Roundup
Issued by NWS

Home | Current Version | Previous Version | Text Only | Print | Product List | Glossary Off
Versions: 1 2 3 4 5 6 7 8 9 10 11 12 13 14 15 16 17 18 19 20 21 22 23 24 25 26 27 28 29 30 31 32 33 34 35 36 37 38 39 40 41 42 43 44 45 46 47 48 49 50

000
ASUS43 KMKX 230500
RWRWI

WISCONSIN REGIONAL WEATHER ROUNDUP
NATIONAL WEATHER SERVICE MILWAUKEE/SULLIVAN WI
1200 AM CDT SAT SEP 23 2017

NOTE: "FAIR" INDICATES FEW OR NO CLOUDS BELOW 12,000 FEET WITH NO
SIGNIFICANT WEATHER AND/OR OBSTRUCTIONS TO VISIBILITY.

WIZ001-002-006>008-014>016-023>028-230600-
NORTHWEST WISCONSIN

CITY           SKY/WX    TMP DP  RH WIND       PRES   REMARKS
SUPERIOR ARPT  CLEAR     61  61  99 NE3       29.79F
ASHLAND        CLEAR     80  67  64 S20G25    29.81S HX  82
HAYWARD        CLEAR     75  66  73 S8        29.88R
SIREN          PTCLDY    81  65  58 S15G22    29.85R HX  82
CUMBERLAND     CLEAR     72  63  73 S8        29.89S
RICE LAKE      CLEAR     74  65  73 E5        29.90F
CHETEK         CLEAR     75  67  76 S3        29.90S
LADYSMITH      PTCLDY    75  67  76 S6        29.93S
EAU CLAIRE     NOT AVBL
MENOMONIE      CLEAR     80  65  61 S9        29.89S HX  82
NEW RICHMOND   CLOUDY    79  65  60 S13       29.89R HX  81
OSCEOLA        CLOUDY    81  66  60 S10G18    29.90R HX  83
$$

WIZ003>005-009-010-017-018-230600-
NORTH CENTRAL WISCONSIN

CITY           SKY/WX    TMP DP  RH WIND       PRES   REMARKS
MANITOWISH WTR CLEAR     72  70  94 S9        29.93F
ARBOR VITAE    CLEAR     74  68  79 S12G17    29.94F
WOODRUFF       CLEAR     74  68  79 S12G17    29.94F
RHINELANDER    CLEAR     73  66  78 SW8       29.97F
EAGLE RIVER    CLEAR     68  66  93 S6        29.95F
LAND O LAKES   CLEAR     70  65  84 S6        29.96F
PHILLIPS       PTCLDY    75  68  78 S12       29.92F
TOMAHAWK       CLEAR     66  64  91 CALM      29.97S
MEDFORD        CLEAR     71  65  81 S9        29.96S
MERRILL        CLEAR     74  67  76 S3        29.97F
$$

WIZ029-030-035-036-043>047-230600-
CENTRAL WISCONSIN

CITY           SKY/WX    TMP DP  RH WIND       PRES   REMARKS
WAUSAU         CLEAR     76  66  71 S9        29.96S
MOSINEE        CLEAR     72  64  78 S10       29.99S
MARSHFIELD     CLEAR     72  64  76 S8        29.96F
STEVENS POINT  CLEAR     74  64  69 S6        29.99S
WAUPACA        CLEAR     71  67  87 CALM      29.98F
WAUTOMA        CLEAR     70  66  87 S5        29.99F
WISC RAPIDS    CLEAR     76  65  68 S7        29.98F
CAMP DOUGLAS   NOT AVBL
$$

WIZ011>013-019>022-031-037>040-048>050-230600-
NORTHEAST WISCONSIN

CITY           SKY/WX    TMP DP  RH WIND       PRES   REMARKS
ANTIGO         CLEAR     68  66  92 S7        30.00S
SHAWANO        CLEAR     73  69  88 CALM      29.97F
OCONTO         CLEAR     68  66  92 S3        29.97F
STURGEON BAY   CLEAR     71  66  84 S10       29.99F
GREEN BAY      CLEAR     72  69  90 S6        29.99S
MANITOWOC      CLEAR     70  66  87 S5        30.01S
APPLETON       CLEAR     72  63  73 S7        29.99S
CLINTONVILLE   CLEAR     70  64  83 S5        29.98F
OSHKOSH        CLEAR     69  65  86 S7        29.99F
$$

WIZ032>034-041-042-053>061-230600-
SOUTHWEST WISCONSIN

CITY           SKY/WX    TMP DP  RH WIND       PRES   REMARKS
LA CROSSE      CLEAR     79  68  69 S8        29.92F HX  81
SPARTA         CLEAR     79  66  64 S6        29.96S HX  81
VIROQUA        CLEAR     76  67  72 S8        29.99S
BOSCOBEL       CLEAR     77  66  68 VRB5      29.97F
PRAIRIE DU CHI CLEAR     80  63  56 CALM      29.96S HX  81
PLATTEVILLE    CLEAR     73  67  79 S8        30.01F
$$

WIZ056-057-062-063-064-067-068-230600-
SOUTH CENTRAL WISCONSIN

CITY           SKY/WX    TMP DP  RH WIND       PRES   REMARKS
REEDSBURG      CLEAR     74  65  75 CALM      29.99R
BARABOO/DELLS  CLEAR     75  63  65 S6        30.00S
LONE ROCK      NOT AVBL
MINERAL POINT  CLEAR     72  68  88 SE5       30.02S
MADISON        CLEAR     74  65  73 S5        30.01S
MIDDLETON      CLEAR     70  65  83 CALM      30.02S
WATERTOWN      CLEAR     68  65  88 SE3       30.02S
MONROE         CLEAR     72  63  73 S9        30.03S
JANESVILLE     CLEAR     72  61  68 CALM      30.02S
$$

WIZ051-052-058>065-066-070>072-230600-
SOUTHEAST WISCONSIN

CITY           SKY/WX    TMP DP  RH WIND       PRES   REMARKS
MILWAUKEE      CLEAR     77  67  71 S7        30.03S
WAUKESHA       CLEAR     72  63  73 S5        30.05S
MILWAUKEE/TIMM CLEAR     73  63  68 S6        30.04S
RACINE         CLEAR     75  67  76 S5        30.05S
BURLINGTON     CLEAR     65  65 100 CALM      30.04S
KENOSHA        CLEAR     74  66  76 S5        30.04S
FOND DU LAC    CLEAR     71  64  78 S7        30.01S
SHEBOYGAN      CLEAR     65  65 100 CALM      30.02S FOG
WEST BEND        N/A     66  64  94 CALM      30.03F
JUNEAU         CLEAR     70  63  79 SE3       30.04R
$$

LSZ147-162-230600-
LAKE SUPERIOR

STATION/POSITION TIME  TEMP    WIND        PRES    WAVE
                       AIR SEA DIR/SP/G            HT/PER
                 (UTC) (F)     (DEG/KT/KT) (MB)    (FT/S)
W MID LAKE BUOY  0350   61 54  120/ 10/ 10 1008.8F   1/ 4
DEVILS ISLAND    0400   63     110/  5/  6 1008.7F
SAXON HARBOR     0430   81     200/ 13/ 25 1008.5S
$$

LMZ867-665-643>646-230600-
LAKE MICHIGAN

STATION/POSITION TIME  TEMP    WIND        PRES    WAVE
                       AIR SEA DIR/SP/G            HT/PER
                 (UTC) (F)     (DEG/KT/KT) (MB)    (FT/S)
S GREEN BAY BUOY 0430   71 67  190/ 10/ 12 1015.0F
N MID LAKE BUOY  0350   69 66  180/  8/ 10 1015.9F   2/ 4
NORTHPORT PIER   0440   71     170/  5/ 12 1014.6F
KEWAUNEE LAKESHO 0430   64     180/  5/  6 1015.1F
SHEBOYGAN LAKESH 0400   72     190/  8/  9 1016.0F
PORT WASHINGTON  0440   71      CALM  /  3 1017.3S
ATWATER BUOY     0309   71 65  170/  8/  8 1016.7S
MILWAUKEE LAKESH 0430   74     120/  2/  3   N/A
S MID LAKE BUOY  0350   73 70  140/  8/  8 1016.9S   0
KENOSHA   LAKESH 0400   78     190/  8/ 11 1016.6
$$

TC  - TEMPERATURE IN CELSIUS
VSB - VISIBILITY IN STATUTE MILES
WCI - WIND CHILL INDEX
HX  - HEAT INDEX




USA.gov is the U.S. government's official web portal to all federal, state and local government web resources and services.